EW9826 Weather Reports


time (UTC)temp
F
wind
direction
speed
knots
gust
knots
rain 1hr
in
rain 24hr
in
rain mn
in
humidity
%
barometer
mb
20260509145505 65 24 5.2 7.8 0.00 0.00 0.00 47 1016.8
20260509145006 65 345 4.3 7.8 0.00 0.00 0.00 48 1016.8
20260509144504 66 6 6.1 11.3 0.00 0.00 0.00 46 1016.7
20260509142505 66 47 2.6 6.1 0.00 0.00 0.00 46 1016.8
20260509142005 66 45 2.6 10.4 0.00 0.00 0.00 46 1016.8
20260509140006 65 17 2.6 7.8 0.00 0.00 0.00 45 1017.1
20260509135505 65 54 3.5 7.8 0.00 0.00 0.00 46 1017.1
20260509134005 64 3 2.6 7.8 0.00 0.00 0.00 48 1017.3
20260509133505 65 3 2.6 6.1 0.00 0.00 0.00 46 1017.3
20260509133005 65 6 4.3 7.0 0.00 0.00 0.00 47 1017.4
20260509132505 64 4 2.6 7.0 0.00 0.00 0.00 48 1017.4
20260509132005 64 3 2.6 6.1 0.00 0.00 0.00 48 1017.5
20260509131505 64 3 4.3 8.7 0.00 0.00 0.00 48 1017.5
20260509131005 64 342 4.3 8.7 0.00 0.00 0.00 49 1017.6
20260509130005 65 47 2.6 6.1 0.00 0.00 0.00 44 1017.7
20260509125504 65 333 2.6 5.2 0.00 0.00 0.00 44 1017.7
20260509125005 65 90 2.6 7.0 0.00 0.00 0.00 45 1017.8
20260509124505 66 317 4.3 7.0 0.00 0.00 0.00 44 1017.8
20260509124005 66 0 1.7 6.1 0.00 0.00 0.00 45 1017.8
20260509123505 66 149 0.9 4.3 0.00 0.00 0.00 46 1017.8
20260509115005 63 0 2.6 6.1 0.00 0.00 0.00 53 1018.2
20260509114504 63 0 3.5 7.8 0.00 0.00 0.00 53 1018.3
20260509114005 64 340 4.3 7.8 0.00 0.00 0.00 51 1018.3
20260509112504 64 115 0.9 2.6 0.00 0.00 0.00 51 1018.4
20260509112005 64 115 2.6 6.1 0.00 0.00 0.00 51 1018.4
20260509111505 63 12 0.9 4.3 0.00 0.00 0.00 54 1018.5
20260509111006 63 11 1.7 7.8 0.00 0.00 0.00 52 1018.6
20260509103504 63 119 2.6 7.8 0.00 0.00 0.00 55 1018.9
20260509103004 63 71 3.5 7.8 0.00 0.00 0.00 57 1018.9
20260509102504 62 75 1.7 4.3 0.00 0.00 0.00 56 1018.9
20260509102004 62 72 1.7 4.3 0.00 0.00 0.00 57 1018.9
20260509101504 62 76 1.7 7.0 0.00 0.00 0.00 58 1018.9
20260509101005 62 46 0.9 6.1 0.00 0.00 0.00 58 1019.0
20260509100005 62 125 2.6 6.1 0.00 0.00 0.00 58 1019.0
20260509095504 62 71 2.6 7.0 0.00 0.00 0.00 58 1019.0
20260509095005 62 0 3.5 6.1 0.00 0.00 0.00 58 1019.0
20260509094505 62 98 2.6 7.0 0.00 0.00 0.00 58 1019.0
20260509094005 62 106 0.9 6.1 0.00 0.00 0.00 59 1019.1
20260509093504 62 114 2.6 4.3 0.00 0.00 0.00 58 1019.1
20260509093004 62 66 2.6 5.2 0.00 0.00 0.00 59 1019.1
20260509092504 62 15 3.5 11.3 0.00 0.00 0.00 61 1019.1
20260509092004 61 118 2.6 7.0 0.00 0.00 0.00 61 1019.2
20260509082508 59 105 4.3 8.7 0.00 0.00 0.00 67 1019.3
20260509082008 59 110 4.3 7.8 0.00 0.00 0.00 66 1019.2
20260509081508 59 132 2.6 6.1 0.00 0.00 0.00 65 1019.2
20260509081010 59 150 2.6 7.0 0.00 0.00 0.00 67 1019.3
20260509075008 58 104 3.5 11.3 0.00 0.00 0.00 69 1019.3
20260509074509 58 119 4.3 10.4 0.00 0.00 0.00 70 1019.3
20260509074009 58 81 4.3 10.4 0.00 0.00 0.00 71 1019.3
20260509073508 58 103 1.7 8.7 0.00 0.00 0.00 72 1019.2
20260509073009 58 103 0.9 7.0 0.00 0.00 0.00 72 1019.3
20260509072508 57 105 0.9 2.6 0.00 0.00 0.00 73 1019.4
20260509072008 57 105 0.9 2.6 0.00 0.00 0.00 75 1019.4
20260509071508 56 105 0.9 4.3 0.00 0.00 0.00 77 1019.4
20260509071009 55 105 1.7 7.0 0.00 0.00 0.00 77 1019.4
20260509061009 51 103 3.5 7.0 0.00 0.00 0.00 82 1019.4
20260509055512 51 22 0.9 4.3 0.00 0.00 0.00 83 1019.4
20260509055008 51 20 0.0 1.7 0.00 0.00 0.00 85 1019.4
20260509051507 48 20 0.0 1.7 0.00 0.00 0.00 89 1019.2
20260509051008 47 20 0.0 0.9 0.00 0.00 0.00 90 1019.1
20260509050008 47 20 0.0 0.0 0.00 0.00 0.00 89 1019.1
20260509045507 47 20 0.0 0.0 0.00 0.00 0.00 89 1019.0
20260509045007 47 20 0.0 0.0 0.00 0.00 0.00 89 1019.0
20260509042507 46 340 0.0 0.0 0.00 0.00 0.00 89 1018.9
20260509042007 46 340 0.0 0.0 0.00 0.00 0.00 89 1018.9
20260509041507 46 340 0.0 0.0 0.00 0.00 0.00 89 1018.9
20260509041007 46 340 0.0 0.0 0.00 0.00 0.00 88 1018.9
20260509040007 47 340 0.0 0.0 0.00 0.00 0.00 89 1018.8
20260509035507 47 340 0.0 0.0 0.00 0.00 0.00 88 1018.9
20260509035008 47 340 0.0 0.0 0.00 0.00 0.00 88 1018.8
20260509034507 47 340 0.0 0.0 0.00 0.00 0.00 88 1018.8
20260509034008 47 340 0.0 0.0 0.00 0.00 0.00 88 1018.9
20260509033507 47 340 0.0 0.0 0.00 0.00 0.00 88 1018.9
20260509031008 47 340 0.0 0.0 0.00 0.00 0.00 88 1018.9
20260509024008 48 340 0.0 0.0 0.00 0.00 0.00 88 1018.9
20260509023508 48 340 0.0 0.9 0.00 0.00 0.00 88 1018.9
20260509023008 48 340 0.0 0.0 0.00 0.00 0.00 88 1018.9
20260509022507 48 340 0.0 0.0 0.00 0.00 0.00 88 1018.9
20260509022007 48 340 0.0 0.0 0.00 0.00 0.00 88 1018.9
20260509021507 48 340 0.0 0.0 0.00 0.00 0.00 88 1018.9
20260509021008 48 340 0.0 0.0 0.00 0.00 0.00 88 1018.9
20260509020007 48 340 0.0 0.0 0.00 0.00 0.00 88 1018.9
20260509015007 48 340 0.0 0.0 0.00 0.00 0.00 87 1018.9
20260509010007 49 340 0.0 0.0 0.00 0.00 0.00 85 1019.2
20260509004008 50 340 0.0 0.0 0.00 0.00 0.00 84 1019.0
20260509003507 50 340 0.0 0.0 0.00 0.00 0.00 83 1019.1
20260509003007 50 340 0.0 0.0 0.00 0.00 0.00 83 1019.0
20260509002507 50 340 0.0 0.0 0.00 0.00 0.00 83 1018.9
20260509000006 51 340 0.0 0.0 0.00 0.00 0.00 82 1018.9
20260508235507 51 340 0.0 0.0 0.00 0.00 0.00 83 1018.9
20260508234007 51 340 0.0 0.0 0.00 0.00 0.00 84 1018.9
20260508233508 51 340 0.0 0.0 0.00 0.00 0.00 84 1018.9
20260508233007 51 340 0.0 0.0 0.00 0.00 0.00 85 1018.9
20260508232507 51 340 0.0 0.0 0.00 0.00 0.00 85 1018.9
20260508232007 51 340 0.0 0.0 0.00 0.00 0.00 85 1018.9
20260508230007 51 340 0.0 0.0 0.00 0.00 0.00 83 1018.9
20260508225506 51 340 0.0 0.0 0.00 0.00 0.00 83 1018.8
20260508225007 51 340 0.0 0.0 0.00 0.00 0.00 83 1018.9
20260508224507 51 340 0.0 0.0 0.00 0.00 0.00 82 1018.9
20260508224007 51 340 0.0 0.0 0.00 0.00 0.00 82 1018.9
20260508223507 51 340 0.0 0.0 0.00 0.00 0.00 81 1018.9
20260508223006 52 340 0.0 0.0 0.00 0.00 0.00 81 1018.9
20260508222506 52 340 0.0 0.0 0.00 0.00 0.00 81 1019.0
20260508222007 52 340 0.0 0.0 0.00 0.00 0.00 81 1019.0
20260508221506 52 340 0.0 0.0 0.00 0.00 0.00 80 1019.0
20260508221007 52 340 0.0 0.0 0.00 0.00 0.00 80 1018.9
20260508215007 53 340 0.0 0.0 0.00 0.00 0.00 79 1018.9
20260508214506 53 340 0.0 0.0 0.00 0.00 0.00 78 1018.9
20260508214007 53 340 0.0 0.0 0.00 0.00 0.00 78 1018.9
20260508212506 54 340 0.0 0.0 0.00 0.00 0.00 76 1018.9
20260508211506 55 340 0.0 0.0 0.00 0.00 0.00 75 1018.9
20260508211008 55 340 0.0 0.0 0.00 0.00 0.00 75 1018.9
20260508210006 55 340 0.0 0.0 0.00 0.00 0.00 74 1018.9
20260508204506 56 340 0.0 0.0 0.00 0.00 0.00 73 1018.8
20260508204007 56 340 0.0 0.0 0.00 0.00 0.00 73 1018.9
20260508203506 56 340 0.0 0.0 0.00 0.00 0.00 72 1018.9
20260508203006 57 340 0.0 0.0 0.00 0.00 0.00 72 1018.9
20260508202506 57 340 0.0 0.0 0.00 0.00 0.00 71 1018.9
20260508192006 60 340 0.0 0.9 0.00 0.00 0.00 62 1018.4
20260508191506 60 340 0.0 1.7 0.00 0.00 0.00 62 1018.4
20260508190006 61 340 0.9 2.6 0.00 0.00 0.00 61 1018.3
20260508185506 61 340 0.0 2.6 0.00 0.00 0.00 60 1018.3
20260508183506 61 340 0.9 4.3 0.00 0.00 0.00 60 1018.0
20260508183006 61 340 0.9 2.6 0.00 0.00 0.00 60 1017.9
20260508182505 61 340 0.9 2.6 0.00 0.00 0.00 60 1017.9
20260508182006 61 340 1.7 4.3 0.00 0.00 0.00 60 1017.9
20260508181505 61 340 2.6 5.2 0.00 0.00 0.00 59 1017.9
20260508181006 61 340 3.5 5.2 0.00 0.00 0.00 59 1017.9
20260508174006 61 335 1.7 4.3 0.00 0.00 0.00 59 1017.8
20260508173508 61 334 2.6 6.1 0.00 0.00 0.00 59 1017.7
20260508173006 61 334 2.6 4.3 0.00 0.00 0.00 60 1017.7
20260508172006 61 334 2.6 4.3 0.00 0.00 0.00 59 1017.7
20260508171505 61 335 2.6 4.3 0.00 0.00 0.00 59 1017.6
20260508171006 61 338 1.7 6.1 0.00 0.00 0.00 59 1017.6
20260508164505 62 3 0.9 2.6 0.00 0.00 0.00 51 1017.4
20260508164005 62 3 4.3 6.1 0.00 0.00 0.00 50 1017.4
20260508163505 62 327 2.6 5.2 0.00 0.00 0.00 52 1017.3
20260508163006 62 33 2.6 5.2 0.00 0.00 0.00 51 1017.3
20260508162506 63 33 1.7 4.3 0.00 0.00 0.00 52 1017.3
20260508162006 63 35 1.7 4.3 0.00 0.00 0.00 51 1017.3
20260508160006 64 326 2.6 5.2 0.00 0.00 0.00 47 1017.3
20260508155505 65 302 1.7 5.2 0.00 0.00 0.00 46 1017.3
20260508153506 64 0 1.7 4.3 0.00 0.00 0.00 47 1017.3